Regional Weather Roundup
Issued by NWS State College, PA

Home | Current Version | Previous Version | Graphics & Text | Print | Product List | Glossary Off
Versions: 1 2 3 4 5 6 7 8 9 10 11 12 13 14 15 16 17 18 19 20 21 22 23 24 25 26 27 28 29 30 31 32 33 34 35 36 37 38 39 40 41 42 43 44 45 46 47 48 49 50

000
ASUS41 KCTP 310410
RWRCTP

REGIONAL WEATHER ROUNDUP
NATIONAL WEATHER SERVICE STATE COLLEGE PA
1200 AM EDT MON AUG 31 2015

Note: "fair" indicates few or no clouds below 12,000 feet with no
significant weather and/or obstructions to visibility.

* = STATION THAT DOES NOT REPORT PRECIPITATION /E.G. RAIN...SNOW...ETC/
    THUNDER OR FOG.

PAZ002>004-007>009-013>016-020>023-029>032-310500-
WESTERN PENNSYLVANIA

CITY           SKY/WX    TMP DP  RH WIND       PRES   REMARKS
ERIE           PTCLDY    72  66  81 S9        30.04F
MEADVILLE      CLEAR     70  66  87 VRB3      30.10R
FRANKLIN*      CLEAR     66  64  94 SW5       30.12S
NEW CASTLE     FAIR      70  67  90 CALM      30.10S
BEAVER COUNTY  NOT AVBL
BUTLER*        PTCLDY    66  64  94 CALM      30.13R
PITTSBURGH INT MOCLDY    72  65  78 CALM      30.10S
PITTSBURGH     MOCLDY    72  63  73 S5        30.11S
INDIANA*       PTCLDY    70  66  88 CALM      30.16R
LATROBE        NOT AVBL
WASHINGTON CO* MOCLDY    66  64  94 CALM      30.12R
$$

PAZ004>006-010>012-017>019-024>028-033>037-041-042-045-046-049>053-310500-
CENTRAL PENNSYLVANIA

CITY           SKY/WX    TMP DP  RH WIND       PRES   REMARKS
BRADFORD       FOG       61  60  97 CALM      30.13S VSB 3/4
DUBOIS         MOCLDY    70  65  84 S5        30.12S HAZE
CLEARFIELD     CLOUDY    66  63  90 CALM      30.13S
JOHNSTOWN      CLOUDY    71  61  70 SW7       30.17R
ALTOONA        CLOUDY    73  62  68 SW5       30.13S
STATE COLLEGE  CLOUDY    70  66  85 CALM      30.11R
WILLIAMSPORT   CLOUDY    71  68  90 CALM      30.06S
SELINSGROVE    CLOUDY    68  66  93 CALM      30.07S FOG
FT INDIANTOWN  CLOUDY    72  66  81 S3        30.07S
CAPITAL CITY   CLOUDY    75  65  70 CALM      30.07S
HARRISBURG     CLOUDY    75  66  73 SE3       30.06S
YORK           CLOUDY    73  67  81 E3        30.08S
$$

PAZ038>040-043-044-047-048-054-055-060>062-067>071-310500-
EASTERN PENNSYLVANIA

CITY           SKY/WX    TMP DP  RH WIND       PRES   REMARKS
SCRANTON       MOCLDY    74  65  73 SW5       30.07S
MOUNT POCONO   CLOUDY    68  64  87 NW6       30.12S
ALLENTOWN      CLOUDY    72  67  84 CALM      30.06S
QUAKERTOWN*    CLOUDY    73  66  78 CALM      30.08S
READING        CLOUDY    76  67  73 CALM      30.06S
LANCASTER      CLOUDY    75  67  76 W7        30.08S
COATESVILLE    CLOUDY    73  72  94 W3        30.10S
POTTSTOWN      CLOUDY    75  68  78 SW6       30.09S
BLUE BELL      CLOUDY    77  68  73 SW5       30.07S
DOYLESTOWN     CLOUDY    74  66  76 SW3       30.07R
WILLOW GROVE   NOT AVBL
NORTH PHILA    CLOUDY    81  63  54 SW8       30.08R
PHILADELPHIA   CLOUDY    80  65  59 SW13      30.08R
$$


USA.gov is the U.S. government's official web portal to all federal, state and local government web resources and services.